Back to catalog

ONEWEB-0596

AliveCommunicationsPO
NORAD 54662·PAYLOAD·🇬🇧 United Kingdom

Launched Dec 8, 2022 from Cape Canaveral Space Force Station

Loading…

Next Passes (next 24 hours)

TLE

FreshSource: CelesTrak SupGP

Epoch: Sep 14, 2026, 13:49 UTC

1 54662C 22166W   26257.57588380 -.00002523  00000+0 -61164-2 0  2576
2 54662  87.9271 226.1898 0002040  82.5373  30.1494 13.21828205    13

Track ONEWEB-0596 in real time with AllMySat

Download on the App Store